Weather History for VIJP - May, 2013

Change the Weather History Date:

Friday, May 24, 2013

  Actual Average Record
Temperature  
Mean Temperature 100 °F -  
Max Temperature 111 °F - - ()
Min Temperature 89 °F - - ()
Cooling Degree Days 35    
Growing Degree Days 50 (Base 50)    
Moisture  
Dew Point 56 °F    
Average Humidity 23    
Maximum Humidity 40    
Minimum Humidity 13    
Precipitation  
Precipitation 0.00 in - - ()
Sea Level Pressure  
Sea Level Pressure 29.56 in    
Wind  
Wind Speed 9 mph ()    
Max Wind Speed 18 mph    
Max Gust Speed 25 mph    
Visibility 2.4 miles    
Events      
T = Trace of Precipitation, MM = Missing Value Source: Averaged Metar Reports

Daily Weather History Graph

Daily Weather History Graph

Search for Another Location

Airport or City:

Trip Planner

Search our weather history database for the weather conditions in past years. The results will help you decide how hot, cold, wet, or windy it might be!

Date:

Astronomy

May. 24, 2013 Rise Set
Actual Time 5:35 AM IST 7:12 PM IST
Civil Twilight 5:09 AM IST 7:37 PM IST
Nautical Twilight 4:38 AM IST 8:08 PM IST
Astronomical Twilight 4:06 AM IST 8:40 PM IST
Moon 6:26 PM IST (5/24) 4:38 AM IST (5/24)
Length of Visible Light 14h 28m
Length of Day
13h 36m
Waxing Gibbous, 99% of the Moon is Illuminated
May 24
Waxing Gibbous
May 25
Full
Jun 1
Last Quarter
Jun 8
New
Jun 16
First Quarter

Hourly Weather History & Observations

Time (IST) Temp. Heat Index Dew Point Humidity Pressure Visibility Wind Dir Wind Speed Gust Speed Precip Events Conditions
12:00 AM 95.0 °F - 51.8 °F 23% 29.59 in 2.5 mi West 8.1 mph - N/A   Haze
1:00 AM 95.0 °F - 51.8 °F 23% 29.59 in 2.5 mi WNW 6.9 mph - N/A   Haze
2:00 AM 93.2 °F 90.8 °F 53.6 °F 26% 29.56 in 2.5 mi NW 5.8 mph - N/A   Haze
2:30 AM 93 °F - 52 °F 16% 29.47 in 2 mi NW 6.9 mph - -   Haze
3:00 AM 93.2 °F 90.8 °F 53.6 °F 26% 29.56 in 2.5 mi NW 4.6 mph - N/A   Haze
4:00 AM 91.4 °F 89.1 °F 53.6 °F 28% 29.56 in 2.5 mi NW 8.1 mph - N/A   Haze
5:00 AM 89.6 °F 88.9 °F 59.0 °F 36% 29.59 in 2.5 mi WNW 10.4 mph - N/A   Haze
6:00 AM 89.6 °F 89.5 °F 60.8 °F 38% 29.59 in 2.5 mi NW 8.1 mph - N/A   Haze
7:00 AM 89.6 °F 90.1 °F 62.6 °F 40% 29.62 in 2.5 mi NW 9.2 mph - N/A   Haze
8:00 AM 93.2 °F 94.9 °F 64.4 °F 38% 29.65 in 2.5 mi WNW 15.0 mph - N/A   Haze
9:00 AM 95.0 °F 96.0 °F 62.6 °F 34% 29.65 in 2.5 mi WNW 17.3 mph - N/A   Widespread Dust
10:00 AM 98.6 °F 99.4 °F 60.8 °F 29% 29.65 in 2.5 mi WNW 17.3 mph - N/A   Widespread Dust
11:00 AM 104.0 °F 103.4 °F 57.2 °F 21% 29.65 in 2.5 mi WNW 15.0 mph - N/A   Widespread Dust
12:00 PM 104.0 °F 102.9 °F 55.4 °F 20% 29.65 in 2.5 mi West 18.4 mph - N/A   Widespread Dust
1:00 PM 107.6 °F 106.1 °F 53.6 °F 17% 29.62 in 2.5 mi WNW 13.8 mph 25.3 mph N/A   Widespread Dust
2:00 PM 109.4 °F - 51.8 °F 15% 29.59 in 2.5 mi WNW 17.3 mph - N/A   Widespread Dust
2:30 PM 110 °F - 74 °F 23% 29.46 in 2 mi WNW 11.5 mph - -   Blowing Sand
3:30 PM 109.4 °F - 51.8 °F 15% 29.56 in 2.5 mi WNW 11.5 mph - N/A   Widespread Dust
4:00 PM 111.2 °F - 50.0 °F 13% 29.53 in 2.5 mi NW 11.5 mph - N/A   Widespread Dust
5:00 PM 109.4 °F - 48.2 °F 13% 29.53 in 2.5 mi WNW 11.5 mph - N/A   Haze
5:30 PM 109 °F - 67 °F 18% 29.42 in 2 mi WNW 8.1 mph - -   Haze
6:00 PM 107.6 °F - 50.0 °F 15% 29.53 in 2.5 mi WNW 10.4 mph - N/A   Haze
7:00 PM 105.8 °F - 51.8 °F 17% 29.53 in 2.5 mi WNW 8.1 mph - N/A   Haze
8:00 PM 104.0 °F 102.3 °F 53.6 °F 19% 29.56 in 2.5 mi WNW 8.1 mph - N/A   Haze
8:30 PM 103 °F - 56 °F 13% 29.44 in 2 mi WNW 9.2 mph - -   Haze
9:00 PM 102.2 °F 100.9 °F 55.4 °F 21% 29.56 in 2.5 mi WNW 8.1 mph - N/A   Haze
10:00 PM 100.4 °F 98.4 °F 53.6 °F 21% 29.59 in 2.5 mi WNW 8.1 mph - N/A   Haze
11:00 PM 98.6 °F 96.4 °F 53.6 °F 22% 29.59 in 2.5 mi WNW 9.2 mph - N/A   Haze
11:30 PM 97 °F - 55 °F 16% 29.48 in 2 mi WNW 6.9 mph - -   Haze